Location: Ay?beleni
(36.6500°N, 30.3000°E)
Time: 04:36:28
(UTC+00:00)

Cosmos 2263 Rocket - Pass Details

Date: 16 October 2021
Orbit: 825 x 847 km, 71.0° (Epoch: 08 December)

Event Time Altitude Azimuth Distance (km) Brightness Sun altitude
Rises 17:22:39 0° 339° (NNW) 3,368 5.7 -25.1°
Reaches altitude 10° 17:25:06 10° 340° (NNW) 2,431 4.9 -25.6°
Maximum altitude 17:30:40 82° 68° (ENE) 836 2.0 -26.7°
Enters shadow 17:30:45 82° 83° (E) 837 2.0 -26.7°
